FW5647 Weather Reports


time (UTC)temp
C
wind
direction
speed
KPH
gust
KPH
rain 1hr
cm
rain 24hr
cm
rain mn
cm
humidity
%
barometer
mb
20260508070036 6 249 1.6 3.2 0.00 0.00 0.00 82 1011.5
20260508064538 6 281 0.0 4.8 0.00 0.00 0.00 80 1011.3
20260508063032 6 0 0.0 4.8 0.00 0.00 0.00 81 1011.3
20260508061537 6 0 0.0 1.6 0.00 0.00 0.00 82 1011.3
20260508060037 6 250 0.0 1.6 0.00 0.00 0.00 81 1011.5
20260508054535 5 0 0.0 0.0 0.00 0.00 0.00 81 1011.4
20260508053058 5 0 0.0 1.6 0.00 0.00 0.00 81 1011.5
20260508051535 5 0 0.0 1.6 0.00 0.00 0.00 79 1011.5
20260508050039 6 0 0.0 1.6 0.00 0.00 0.00 78 1011.6
20260508044537 6 127 0.0 1.6 0.00 0.00 0.00 77 1011.4
20260508043036 6 0 0.0 0.0 0.00 0.00 0.00 75 1011.6
20260508041558 7 0 0.0 1.6 0.00 0.00 0.00 72 1011.6
20260508040043 8 0 0.0 6.4 0.00 0.00 0.00 71 1011.4
20260508034535 8 257 1.6 6.4 0.00 0.00 0.00 71 1011.5
20260508033035 8 190 0.0 4.8 0.00 0.00 0.00 71 1011.3
20260508031537 8 160 0.0 3.2 0.00 0.00 0.00 70 1011.5
20260508030038 8 0 0.0 1.6 0.00 0.00 0.00 70 1011.8
20260508024538 8 0 0.0 0.0 0.00 0.00 0.00 67 1011.8
20260508023035 8 0 0.0 4.8 0.00 0.00 0.00 66 1011.7
20260508021534 9 0 0.0 3.2 0.00 0.00 0.00 65 1011.6
20260508020040 10 239 1.6 19.3 0.00 0.00 0.00 61 1011.6
20260508014537 9 120 3.2 9.7 0.00 0.00 0.00 58 1011.6
20260508013038 8 237 1.6 3.2 0.00 0.00 0.00 60 1011.5
20260508011540 8 0 0.0 1.6 0.00 0.00 0.00 58 1011.1
20260508010034 10 0 0.0 0.0 0.00 0.00 0.00 56 1010.9
20260508004534 10 256 0.0 3.2 0.00 0.00 0.00 51 1011.0
20260508003036 10 265 3.2 8.0 0.00 0.00 0.00 50 1010.9
20260508001537 11 300 4.8 12.9 0.00 0.00 0.00 49 1011.0
20260508000036 11 248 3.2 11.3 0.00 0.00 0.00 49 1011.0
20260507234536 11 232 6.4 14.5 0.00 0.00 0.00 48 1011.0
20260507233056 11 259 4.8 16.1 0.00 0.00 0.00 49 1010.9
20260507231541 11 296 4.8 12.9 0.00 0.00 0.00 48 1010.9
20260507230043 12 238 8.0 19.3 0.00 0.00 0.00 46 1011.0
20260507224541 12 309 6.4 16.1 0.00 0.00 0.00 46 1011.2
20260507223043 12 288 9.7 20.9 0.00 0.00 0.00 44 1011.1
20260507221541 12 340 6.4 16.1 0.00 0.00 0.00 44 1011.1
20260507220041 12 294 6.4 22.5 0.00 0.00 0.00 46 1011.3
20260507214537 11 282 8.0 20.9 0.00 0.00 0.00 46 1011.2
20260507213040 11 325 8.0 25.7 0.00 0.00 0.00 47 1011.3
20260507211537 11 316 9.7 24.1 0.00 0.00 0.00 46 1011.2
20260507210045 11 269 11.3 29.0 0.00 0.00 0.00 45 1011.2
20260507204542 12 256 11.3 29.0 0.00 0.00 0.00 46 1011.3
20260507203042 12 264 11.3 30.6 0.00 0.00 0.00 46 1011.6
20260507201538 11 296 12.9 35.4 0.00 0.00 0.00 46 1011.5
20260507200038 11 305 16.1 32.2 0.00 0.00 0.00 44 1011.6
20260507194607 11 326 12.9 30.6 0.00 0.00 0.00 45 1011.6
20260507193038 11 253 14.5 25.7 0.00 0.00 0.00 45 1011.7
20260507191541 11 302 12.9 32.2 0.00 0.00 0.00 44 1011.7
20260507190049 11 258 8.0 24.1 0.00 0.00 0.00 48 1011.6
20260507184540 11 316 11.3 24.1 0.00 0.00 0.00 46 1011.6
20260507183044 11 309 11.3 22.5 0.00 0.00 0.00 47 1011.8
20260507181537 11 265 9.7 20.9 0.00 0.00 0.00 46 1012.0
20260507180039 11 292 14.5 22.5 0.00 0.00 0.00 47 1011.9
20260507174553 11 7 8.0 19.3 0.00 0.00 0.00 47 1012.3
20260507173054 10 264 12.9 33.8 0.00 0.00 0.00 48 1012.4
20260507171545 10 233 14.5 27.4 0.00 0.00 0.00 47 1012.6
20260507170039 10 278 11.3 20.9 0.00 0.00 0.00 48 1012.8
20260507164547 10 276 11.3 30.6 0.00 0.00 0.00 51 1012.8
20260507163033 10 274 11.3 22.5 0.00 0.00 0.00 52 1012.7
20260507161556 10 309 12.9 24.1 0.00 0.00 0.00 50 1012.8
20260507160041 10 249 14.5 24.1 0.00 0.00 0.00 50 1013.0
20260507154542 10 296 9.7 25.7 0.00 0.00 0.00 51 1013.0
20260507153040 10 335 11.3 19.3 0.00 0.00 0.00 52 1012.8
20260507151536 10 295 11.3 20.9 0.00 0.00 0.00 54 1012.8
20260507150035 10 262 12.9 27.4 0.00 0.00 0.00 56 1012.7
20260507144534 9 312 9.7 22.5 0.00 0.00 0.00 54 1012.7
20260507143043 10 294 8.0 17.7 0.00 0.00 0.00 55 1012.9
20260507141541 10 266 6.4 11.3 0.00 0.00 0.00 56 1012.8
20260507140039 10 287 3.2 9.7 0.00 0.00 0.00 56 1012.8
20260507134536 9 320 4.8 12.9 0.00 0.00 0.00 58 1012.9
20260507133043 9 304 4.8 11.3 0.00 0.00 0.00 57 1013.0
20260507131541 8 211 3.2 9.7 0.00 0.00 0.00 59 1013.2
20260507130039 7 238 4.8 11.3 0.00 0.00 0.00 62 1013.1
20260507124540 7 276 1.6 8.0 0.00 0.00 0.00 63 1013.1
20260507123040 7 343 3.2 6.4 0.00 0.00 0.00 63 1013.0
20260507121541 6 307 1.6 4.8 0.00 0.00 0.00 67 1013.0
20260507120042 6 277 3.2 6.4 0.00 0.00 0.00 71 1013.0
20260507114535 5 257 0.0 3.2 0.00 0.00 0.00 76 1012.8
20260507113047 3 274 0.0 1.6 0.00 0.00 0.00 80 1012.7
20260507111538 2 0 0.0 0.0 0.00 0.00 0.00 83 1012.7
20260507110038 1 0 0.0 1.6 0.00 0.00 0.00 86 1012.6
20260507104536 1 0 0.0 0.0 0.00 0.00 0.00 86 1012.3
20260507103033 1 0 0.0 0.0 0.00 0.00 0.00 83 1012.3
20260507101532 2 0 0.0 0.0 0.00 0.00 0.00 82 1012.2
20260507100037 2 0 0.0 0.0 0.00 0.00 0.00 80 1012.1
20260507094544 2 0 0.0 0.0 0.00 0.00 0.00 79 1012.1
20260507093037 3 0 0.0 0.0 0.00 0.00 0.00 79 1012.2
20260507091536 3 0 0.0 0.0 0.00 0.00 0.00 77 1012.4
20260507090036 4 0 0.0 0.0 0.00 0.00 0.00 77 1012.3
20260507084534 5 0 0.0 0.0 0.00 0.00 0.00 75 1012.4
20260507083034 5 0 0.0 1.6 0.00 0.00 0.00 73 1012.5
20260507081545 5 0 0.0 1.6 0.00 0.00 0.00 74 1012.5
20260507080038 5 0 0.0 1.6 0.00 0.00 0.00 73 1012.4
20260507074535 5 0 0.0 1.6 0.00 0.00 0.00 73 1012.5
20260507073035 6 0 0.0 1.6 0.00 0.00 0.00 72 1012.4